Location: R�o Medio
(42.4667°N, 3.0167°W)
Time: 17:24:38
(UTC+00:00)

STARLINK-1056 - Pass Details

Date: 27 February 2020
Orbit: 549 x 550 km, 53.0° (Epoch: 06 April)

Event Time Altitude Azimuth Distance (km) Brightness Sun altitude
Rises 18:58:45 0° 242° (WSW) 2,707 8.3 -11.9°
Reaches altitude 10° 19:01:00 10° 245° (WSW) 1,816 7.4 -12.3°
Maximum altitude 19:05:05 62° 327° (NNW) 620 4.0 -13.0°
Enters shadow 19:08:38 14° 47° (NE) 1,607 5.6 -13.7°
